El Hierro > ESTACION METEOROLÓGICA La Restinga - Avenida

DATOS ACTUALES Online

Ultima actulizacion 32 minutos

22.8 ºC

Temperatura

93

Humedad (%)

1013.3

Presión (mb)

9.2

Precipitación (mm)

10.1 NW

Viento (Km/h)

DATOS DIARIOS

Temperatura últimas 24 horas (ºC)

Humedad últimas 24 horas (%)

Presión atmosférica últimas 24 horas (mb)

Precipitaciones últimas 23 horas (mm)

Viento últimas 24 horas (Km/h)

Hora Temperatura (°C) ºC Precipitación (mm) mm Presión (mb) mb Humedad (%) % Viento (Km/h) km/h
24 - 22:00 24.4 0 1016 74 1.4 SW
24 - 23:00 24.7 0 1016 65 9.7 NW
25 - 00:00 24.7 0 1015 68 9 N
25 - 01:00 24.4 0 1016 78 14.4 N
25 - 02:00 24.1 0 1016 81 15.5 NW
25 - 03:00 23.7 0 1015 78 4.3 S
25 - 04:00 23.6 0 1014 78 7.6 W
25 - 05:00 23.6 0 1014 82 12.6 W
25 - 06:00 22.7 0 1014 87 9 NW
25 - 07:00 22.6 0 1014 86 8.3 W
25 - 08:00 22.2 0.3 1015 85 5.4 W
25 - 09:00 22.1 1.1 1016 88 2.9 SW
25 - 10:00 21.4 2 1016 87 3.2 SW
25 - 11:00
25 - 12:00
25 - 13:00 21.6 5.4 1016 90 4 NW
25 - 14:00 22.2 5.8 1015 91 1.8 SW
25 - 15:00 22.3 6 1014 89 5 S
25 - 16:00 22.3 6.3 1014 91 3.2 W
25 - 17:00 22.3 6.5 1014 91 2.9 W
25 - 18:00 22.3 6.7 1014 92 3.2 SW
25 - 19:00 22.1 7.8 1014 92 4.7 SO
25 - 20:00 22.1 8.1 1013 93 1.8 SW
25 - 21:00 22.2 8.3 1013 93 2.9 S
25 - 22:00 22.8 9.2 1013 93 10.1 NW
Apalmet utiliza cookies propias y de terceros para mejorar la usabilidad y la experiencia web. Política de cookies.